Wind_Speed
76 77 77 77 76 77 77 79 81 81 78 77 78 79 80 81 81 82 82 82 82 82 83 85 86 88 89 89 90 90 89 88 87 85 83 81 79 77
76 76 76 75 76 76 77 78 80 81 80 76 76 76 76 76 76 76 76 76 76 76 76 78 80 82 84 86 87 88 88 88 88 87 86 84 82 80
76 76 76 75 75 76 76 77 77 77 78 74 72 70 70 69 69 69 69 70 69 70 71 72 74 76 78 80 83 85 86 87 87 87 87 86 84 82
76 75 74 74 75 75 75 74 73 72 72 70 65 63 63 63 63 63 63 64 64 65 66 66 68 70 71 73 76 78 81 83 85 86 86 86 84 84
74 73 73 73 73 72 72 71 69 67 66 65 61 58 57 57 58 58 58 58 58 59 59 59 60 62 63 65 68 71 73 76 79 81 83 84 84 84
73 72 72 72 71 69 67 65 63 62 60 59 57 55 54 53 54 53 53 54 53 53 53 54 54 55 56 58 60 63 65 69 71 75 77 79 80 81
72 71 70 68 66 64 61 59 57 56 55 55 54 52 50 50 50 50 50 49 49 49 49 49 50 50 51 52 53 55 57 60 64 67 70 72 75 76
70 68 65 62 59 56 55 53 52 52 51 51 50 48 46 46 46 46 46 46 44 43 45 44 45 45 47 49 49 51 52 54 56 59 63 66 69 71
66 63 59 56 53 52 50 49 48 47 47 47 46 44 43 42 42 42 42 41 40 40 42 41 41 42 43 44 46 47 48 50 52 55 57 60 63 66
60 57 54 50 49 48 46 44 43 43 43 43 43 42 41 41 41 40 40 40 39 38 39 39 39 40 41 42 43 44 46 47 49 51 53 56 58 60
53 51 49 46 45 44 43 41 40 40 40 41 41 39 39 38 39 39 39 40 38 37 38 38 37 38 39 40 41 42 43 45 46 47 49 52 53 55
48 46 44 43 41 40 40 39 39 38 39 38 37 37 37 36 37 37 38 39 38 37 36 37 37 37 37 37 39 40 41 42 43 45 46 48 51 52
44 42 40 39 38 37 37 38 37 37 37 36 35 35 35 35 35 36 37 37 37 36 35 36 36 37 37 36 37 38 39 40 41 42 44 46 48 50
42 39 37 37 36 36 36 36 36 35 34 34 33 33 33 33 33 34 34 35 35 35 35 35 35 35 35 35 35 36 38 39 40 41 42 43 45 47
40 38 37 37 36 36 35 35 34 34 34 33 32 32 32 32 32 33 33 33 33 33 33 34 34 34 34 34 34 35 36 37 38 39 41 42 43 45
39 37 36 35 35 35 34 34 34 33 33 32 32 31 31 31 31 32 32 32 32 32 32 32 32 33 33 33 33 33 34 35 36 38 39 40 41 43
36 35 34 34 33 33 33 32 32 32 32 32 31 31 31 31 30 31 31 31 31 30 30 30 31 32 32 32 32 32 32 33 34 36 37 39 40 41
36 34 33 33 33 33 32 32 32 32 32 32 32 31 31 30 30 30 30 30 29 29 29 30 30 31 31 31 31 32 32 33 34 35 36 37 38 40
35 34 33 32 32 31 30 30 30 31 31 31 31 31 31 30 30 30 30 30 29 29 29 30 30 31 31 31 31 33 33 34 34 35 35 36 36 38
34 33 32 32 32 31 31 31 31 30 31 31 31 31 30 30 29 29 29 29 29 29 29 30 30 30 31 31 31 32 34 34 35 35 35 35 35 36
33 32 32 32 31 31 31 31 31 31 31 30 30 30 30 29 29 29 29 29 29 29 29 29 29 29 29 29 29 30 32 33 34 35 36 36 36 36
32 31 31 31 31 31 31 30 30 30 30 29 29 29 28 28 28 28 28 28 28 28 27 27 28 28 28 28 27 28 29 31 32 34 35 37 37 37
31 31 31 31 31 30 29 29 28 29 29 29 28 27 27 27 27 27 27 27 27 27 27 28 28 28 28 28 28 28 29 30 30 31 33 35 37 38
Wind_Direction
295 294 294 292 291 290 289 289 288 286 285 284 282 280 278 277 275 273 271 269 266 264 263 261 259 257 256 255 254 253 253 252 252 251 251 252 252 252
296 295 294 293 292 291 290 289 289 288 287 285 283 281 279 278 276 275 273 271 269 266 264 262 260 259 257 255 253 252 251 251 251 250 250 250 250 250
297 296 295 294 293 292 291 290 289 288 287 286 283 281 279 278 276 275 273 272 270 268 266 264 262 260 257 256 254 252 251 250 249 248 248 248 249 249
298 297 296 295 294 293 292 291 290 288 287 286 284 281 279 278 276 275 274 272 271 269 267 265 263 261 259 257 255 253 251 250 248 247 247 247 247 247
299 297 296 296 295 294 292 291 289 288 287 286 285 282 280 279 277 275 274 273 271 270 268 266 264 262 260 259 256 254 252 250 249 248 246 245 245 245
299 298 297 296 295 293 292 290 288 287 286 286 285 283 282 280 278 276 274 273 271 270 268 267 265 263 261 259 257 255 252 250 248 247 246 245 245 244
300 298 297 296 294 292 291 290 288 287 286 286 285 283 282 280 278 276 275 273 271 270 268 267 266 264 262 260 258 256 254 251 249 247 246 245 244 244
300 299 297 295 293 291 290 290 289 288 288 287 286 285 284 282 279 277 276 274 272 270 268 267 266 264 262 260 259 256 254 251 249 248 246 245 244 243
300 299 297 295 292 291 290 289 288 289 289 288 287 287 285 283 281 279 277 275 273 270 268 267 266 265 262 260 258 256 254 252 251 249 246 245 245 243
300 299 297 294 292 291 290 289 288 288 288 287 287 286 285 284 283 280 278 276 274 273 271 269 267 265 262 260 258 257 255 254 252 250 248 246 245 243
301 299 297 295 293 292 291 290 289 288 288 287 287 285 284 284 283 281 279 277 276 274 272 271 269 265 262 260 259 257 256 254 252 250 248 246 245 243
302 300 298 296 294 292 292 291 291 290 288 287 286 285 284 283 282 281 280 279 278 275 273 272 270 267 264 261 259 257 256 254 252 250 248 246 245 243
302 300 298 296 295 293 293 293 293 292 290 287 286 284 283 282 282 281 281 280 279 277 274 272 270 268 265 261 259 258 257 255 253 250 248 245 244 243
303 301 299 297 295 294 293 294 293 293 292 290 288 286 284 283 281 281 280 280 279 278 276 274 271 269 266 263 259 258 257 255 253 250 248 246 244 243
302 300 299 297 296 295 294 293 292 292 292 291 290 288 286 284 282 281 280 279 279 278 277 275 272 270 268 265 262 259 257 255 253 251 249 246 244 243
301 299 298 298 297 296 295 293 293 292 291 291 290 288 287 285 284 282 280 279 279 278 277 275 272 270 268 266 263 261 258 255 253 251 249 247 245 244
300 298 297 297 297 296 295 294 293 292 291 290 289 288 286 285 284 283 282 281 279 277 276 274 272 270 268 267 264 262 259 255 253 251 250 248 246 245
302 301 299 298 298 296 295 294 293 292 290 289 288 287 286 284 283 283 282 282 281 278 276 274 273 271 269 267 266 262 259 256 254 252 251 249 247 246
302 302 300 299 298 297 295 295 295 294 292 290 289 287 286 285 283 283 282 281 281 279 277 275 274 273 271 268 266 264 261 257 255 253 252 250 248 246
302 302 300 299 298 297 295 295 295 294 293 291 289 288 287 285 283 282 282 281 280 279 278 276 275 274 271 268 265 264 262 259 256 254 252 250 248 247
302 301 301 299 298 297 296 295 295 294 293 292 290 289 287 285 284 283 282 281 280 279 278 276 275 274 272 270 267 264 262 260 256 253 252 251 249 248
303 303 302 301 299 298 297 296 296 295 294 293 292 290 288 286 285 284 283 282 281 279 278 276 275 274 273 272 269 265 263 261 258 256 254 253 251 250
304 304 304 303 301 299 298 297 297 297 296 294 293 292 290 288 287 286 284 282 281 280 279 278 276 274 273 272 270 267 264 262 260 258 256 255 253 252
Height
5600 5593 5586 5580 5572 5566 5559 5552 5546 5544 5548 5548 5540 5533 5526 5523 5522 5519 5521 5521 5521 5522 5522 5524 5527 5531 5535 5541 5547 5553 5560 5566 5573 5579 5585 5592 5598 5603
5578 5571 5564 5557 5550 5543 5536 5530 5522 5515 5516 5523 5515 5508 5501 5498 5496 5493 5493 5493 5494 5495 5495 5497 5499 5503 5508 5513 5519 5525 5532 5539 5546 5554 5561 5568 5575 5581
5557 5549 5542 5534 5528 5521 5513 5506 5499 5491 5486 5493 5490 5484 5478 5475 5473 5470 5470 5469 5470 5471 5471 5472 5474 5477 5481 5486 5492 5498 5505 5512 5519 5527 5534 5543 5551 5559
5535 5526 5519 5511 5505 5497 5490 5483 5477 5470 5462 5463 5466 5462 5458 5454 5452 5450 5449 5448 5448 5449 5448 5449 5451 5454 5457 5461 5466 5472 5479 5485 5493 5501 5510 5521 5528 5533
5513 5505 5497 5489 5482 5475 5467 5461 5455 5449 5443 5439 5442 5441 5438 5435 5432 5430 5429 5428 5428 5428 5428 5429 5431 5433 5435 5439 5443 5449 5455 5462 5470 5477 5483 5491 5501 5509
5491 5483 5475 5467 5459 5452 5446 5440 5435 5430 5425 5421 5421 5421 5420 5417 5413 5412 5411 5411 5411 5410 5410 5412 5413 5415 5417 5420 5424 5428 5433 5438 5444 5451 5459 5467 5476 5485
5470 5462 5453 5445 5438 5431 5425 5421 5416 5412 5409 5405 5403 5402 5402 5400 5397 5395 5394 5394 5395 5394 5394 5396 5397 5399 5401 5403 5405 5409 5413 5418 5423 5430 5437 5445 5453 5462
5449 5441 5433 5426 5419 5413 5408 5404 5400 5396 5392 5389 5387 5386 5385 5383 5381 5379 5378 5378 5380 5381 5379 5381 5381 5383 5385 5387 5389 5392 5396 5400 5405 5411 5417 5424 5432 5440
5427 5420 5414 5408 5402 5397 5393 5389 5386 5382 5378 5375 5372 5372 5370 5369 5366 5365 5364 5364 5365 5366 5365 5367 5368 5369 5370 5371 5374 5376 5380 5384 5388 5393 5399 5406 5412 5420
5409 5402 5396 5391 5386 5381 5378 5376 5373 5370 5366 5362 5359 5358 5356 5355 5353 5352 5351 5351 5352 5352 5352 5353 5355 5355 5356 5358 5360 5362 5365 5369 5373 5377 5383 5388 5395 5402
5392 5386 5380 5376 5372 5367 5364 5362 5360 5357 5353 5350 5348 5346 5344 5342 5340 5339 5338 5338 5339 5340 5339 5340 5341 5342 5343 5345 5347 5349 5351 5355 5359 5363 5367 5373 5378 5385
5379 5372 5367 5362 5359 5355 5351 5349 5347 5344 5341 5338 5336 5334 5332 5330 5329 5327 5326 5325 5325 5327 5328 5327 5328 5328 5331 5333 5334 5336 5338 5341 5345 5349 5353 5358 5363 5369
5365 5360 5355 5350 5347 5343 5340 5337 5334 5331 5328 5326 5324 5323 5321 5319 5318 5316 5315 5313 5313 5314 5315 5315 5315 5316 5317 5320 5322 5324 5326 5328 5331 5335 5339 5344 5349 5355
5352 5348 5344 5340 5336 5333 5329 5326 5322 5319 5317 5314 5313 5311 5310 5308 5307 5305 5304 5302 5302 5302 5302 5302 5303 5304 5305 5307 5310 5312 5313 5316 5319 5322 5326 5331 5335 5341
5340 5336 5332 5328 5325 5322 5318 5315 5311 5309 5306 5304 5302 5300 5299 5297 5296 5295 5293 5292 5291 5291 5291 5291 5291 5292 5293 5295 5297 5300 5302 5304 5306 5310 5313 5318 5322 5327
5328 5325 5321 5317 5314 5311 5308 5304 5301 5298 5295 5293 5291 5290 5288 5287 5285 5284 5283 5282 5281 5281 5280 5280 5280 5281 5282 5284 5285 5288 5290 5292 5294 5297 5301 5305 5309 5314
5318 5315 5311 5307 5304 5300 5297 5294 5291 5288 5285 5283 5281 5279 5278 5276 5275 5273 5272 5271 5271 5271 5270 5270 5270 5270 5271 5272 5274 5276 5278 5280 5283 5285 5288 5292 5297 5301
5307 5304 5300 5297 5293 5290 5287 5284 5281 5278 5275 5273 5271 5269 5267 5266 5265 5263 5262 5261 5261 5260 5260 5260 5259 5259 5260 5262 5263 5264 5266 5269 5271 5273 5276 5280 5284 5288
5297 5293 5290 5286 5283 5280 5277 5274 5271 5268 5265 5262 5260 5258 5257 5255 5254 5253 5252 5251 5250 5250 5250 5249 5249 5249 5250 5251 5252 5253 5254 5256 5259 5261 5264 5268 5272 5275
5287 5283 5280 5276 5273 5270 5267 5264 5261 5258 5255 5252 5250 5248 5246 5245 5243 5242 5242 5241 5240 5240 5239 5239 5238 5238 5239 5240 5240 5241 5242 5244 5247 5249 5252 5255 5259 5262
5277 5274 5270 5267 5263 5260 5257 5254 5251 5248 5245 5242 5240 5237 5235 5234 5233 5232 5231 5230 5230 5229 5229 5228 5228 5227 5227 5228 5230 5231 5231 5232 5234 5237 5240 5243 5247 5250
5268 5264 5261 5257 5253 5250 5247 5244 5241 5238 5235 5232 5230 5227 5225 5224 5223 5221 5221 5220 5219 5219 5218 5218 5217 5217 5217 5218 5218 5219 5220 5220 5222 5224 5227 5231 5233 5238
5258 5255 5251 5247 5244 5240 5237 5234 5231 5228 5225 5222 5220 5218 5216 5214 5213 5211 5210 5209 5209 5208 5208 5207 5207 5207 5207 5207 5208 5209 5209 5210 5211 5213 5215 5217 5220 5223